Wind_Speed
41 43 44 46 46 49 51 55 55 60 60 60 61 63 63 67 72 74 75 75 74 72 73 72 75 76 74 73 73 64 57 62
39 44 48 50 55 57 59 60 61 62 65 68 69 70 70 73 73 74 76 80 80 80 81 83 79 78 78 80 80 74 68 72
46 49 53 56 58 61 63 64 68 71 74 77 79 81 80 81 79 81 82 78 79 81 83 83 85 79 80 80 81 79 81 78
51 53 55 58 57 61 64 68 71 69 73 76 78 80 84 90 90 87 91 88 82 83 82 83 84 81 77 77 79 83 70 66
59 64 61 63 67 64 67 70 76 80 82 85 88 94 97 99 97 102 106 100 95 94 89 89 89 83 73 70 69 72 74 74
62 65 67 72 74 72 66 71 75 73 85 94 96 95 98 103 106 109 111 116 108 103 103 110 97 82 65 58 77 87 79 64
65 66 63 64 64 66 77 85 84 84 85 94 96 99 108 112 108 110 118 116 122 118 113 111 108 84 94 96 95 98 94 82
64 63 67 76 74 80 89 94 93 109 109 113 114 116 103 107 109 112 111 115 111 108 111 109 108 102 103 109 101 97 90 90
73 77 79 82 85 92 103 104 119 120 111 103 107 106 106 112 111 110 117 117 114 118 120 114 115 113 106 105 106 98 105 98
78 84 87 92 98 108 111 123 118 111 106 107 108 111 115 117 118 119 118 119 118 118 116 121 119 120 114 113 106 101 90 89
85 93 93 111 112 117 120 125 110 113 113 116 117 117 117 116 117 120 118 115 114 113 110 118 119 121 120 117 114 110 114 113
96 96 110 121 124 124 131 130 118 113 115 112 102 98 98 99 104 101 100 100 101 103 100 106 111 108 112 113 116 116 116 115
100 108 113 126 125 135 134 121 117 111 103 92 90 84 85 88 83 82 80 79 80 85 87 89 92 94 95 102 106 104 103 96
111 116 128 130 134 137 126 122 110 98 87 82 78 78 78 79 76 71 70 68 70 72 75 79 79 82 83 86 90 89 88 86
121 124 135 132 134 140 116 110 95 86 81 76 73 71 70 70 68 65 61 61 62 64 66 71 74 77 79 81 84 88 91 94
129 139 135 141 140 120 108 98 87 80 76 73 66 64 60 59 57 57 55 54 53 55 58 62 65 68 73 77 81 86 92 94
139 145 146 137 115 105 98 91 83 75 71 66 60 56 54 51 48 48 48 48 49 51 53 55 57 61 66 71 75 81 85 93
147 142 139 114 102 94 89 86 76 69 65 60 53 51 50 46 45 44 43 43 44 46 49 53 55 57 61 65 67 72 78 80
153 146 146 115 94 83 81 78 68 63 59 55 50 45 44 41 40 40 40 40 40 42 44 48 52 55 59 62 64 67 70 72
Wind_Direction
266 267 268 266 270 272 274 276 275 281 282 279 282 284 283 284 284 286 285 287 284 280 283 288 288 289 288 292 292 291 286 281
277 274 274 275 273 274 275 275 278 279 279 279 280 280 280 281 284 284 284 284 283 282 280 282 286 286 284 287 288 288 285 285
283 281 278 280 282 282 282 281 279 279 279 277 279 278 280 276 282 290 288 290 288 285 280 284 288 286 283 285 288 287 288 287
284 285 288 286 283 284 286 286 285 282 283 281 281 280 281 280 275 279 288 286 281 285 284 282 285 282 285 289 291 287 282 286
294 292 286 289 293 292 293 291 287 285 285 285 285 283 283 281 281 273 280 287 286 280 284 284 279 278 278 295 274 277 278 289
299 296 291 291 289 290 289 292 294 297 280 279 284 284 284 282 279 279 278 279 279 276 274 271 277 269 263 244 258 268 277 277
295 297 293 296 299 299 293 300 301 292 292 291 285 285 286 284 275 273 281 277 272 274 270 273 273 266 258 253 254 262 258 260
297 307 308 308 298 298 304 304 300 305 302 299 297 294 288 286 281 278 273 277 275 271 272 271 268 264 262 258 255 256 260 254
304 313 312 309 305 302 301 305 307 303 301 294 290 285 282 279 275 275 270 269 267 265 266 264 263 259 255 253 259 252 253 263
300 310 307 310 304 302 309 310 308 305 300 294 289 285 281 279 275 271 268 267 266 264 261 262 261 259 255 252 245 242 246 249
304 306 308 308 311 313 312 315 306 301 294 289 286 281 279 276 272 269 266 265 265 263 262 263 264 260 256 251 249 247 245 244
309 306 305 316 314 313 313 315 307 297 291 288 283 280 276 275 272 271 271 267 263 262 261 261 258 256 255 253 254 252 251 248
305 305 315 317 316 316 315 312 304 298 295 292 287 285 281 278 279 274 269 265 263 262 260 258 256 254 253 253 254 252 252 247
309 314 316 319 319 321 315 311 304 299 296 293 293 290 287 284 280 276 273 268 264 260 258 257 254 251 249 250 251 248 245 244
313 313 321 320 320 321 313 309 304 301 300 299 296 291 286 281 280 278 275 271 266 261 257 254 252 249 247 246 244 242 240 236
313 317 319 319 320 318 311 310 305 303 304 300 295 290 287 284 281 278 274 271 266 260 256 254 252 249 247 245 244 242 242 242
314 318 321 320 319 314 311 309 304 306 303 300 298 294 290 287 284 279 275 269 263 259 256 253 250 248 247 246 243 241 241 241
317 320 324 317 316 314 312 307 306 307 304 302 298 295 292 292 288 283 278 273 267 261 257 254 252 248 246 246 244 243 243 242
320 319 320 316 315 313 310 307 308 307 303 301 298 295 292 289 285 282 278 274 270 265 259 254 251 249 247 246 244 243 243 242
Height
10711 10710 10707 10705 10702 10700 10698 10695 10691 10688 10684 10680 10677 10672 10670 10667 10666 10664 10662 10660 10661 10656 10653 10655 10652 10651 10648 10646 10646 10649 10647 10643
10703 10698 10696 10695 10691 10688 10685 10682 10676 10671 10667 10663 10660 10657 10654 10651 10647 10645 10644 10642 10639 10638 10635 10635 10634 10634 10632 10630 10629 10632 10633 10628
10693 10691 10687 10683 10679 10675 10670 10664 10661 10656 10651 10648 10642 10638 10636 10634 10629 10627 10626 10623 10618 10619 10620 10615 10615 10613 10612 10609 10607 10610 10613 10610
10684 10680 10676 10671 10667 10660 10654 10648 10642 10637 10631 10626 10621 10617 10614 10610 10607 10603 10601 10600 10599 10597 10600 10597 10595 10596 10598 10594 10593 10593 10592 10592
10670 10666 10661 10657 10654 10647 10640 10634 10626 10619 10614 10608 10601 10596 10587 10582 10578 10577 10573 10572 10574 10577 10577 10573 10578 10581 10584 10581 10570 10574 10578 10576
10656 10650 10644 10639 10635 10631 10622 10615 10609 10600 10595 10585 10577 10569 10561 10555 10548 10544 10541 10541 10543 10548 10561 10556 10549 10561 10569 10571 10553 10567 10564 10564
10643 10636 10631 10624 10617 10610 10603 10593 10580 10573 10567 10559 10552 10543 10532 10525 10519 10514 10509 10503 10502 10508 10512 10513 10515 10526 10529 10534 10533 10536 10543 10545
10626 10618 10610 10602 10593 10585 10576 10566 10554 10540 10528 10519 10510 10500 10495 10484 10476 10470 10469 10467 10463 10461 10464 10471 10477 10483 10488 10494 10501 10507 10507 10516
10602 10594 10585 10577 10567 10559 10550 10533 10518 10500 10487 10479 10468 10460 10450 10444 10438 10427 10421 10419 10417 10421 10422 10425 10431 10438 10449 10458 10467 10473 10480 10482
10580 10571 10561 10552 10543 10529 10510 10495 10474 10459 10445 10437 10425 10411 10399 10392 10383 10375 10371 10367 10369 10370 10375 10377 10387 10394 10405 10415 10430 10442 10444 10455
10559 10549 10537 10529 10510 10487 10468 10453 10432 10417 10404 10391 10382 10366 10349 10338 10325 10319 10319 10320 10324 10325 10333 10335 10342 10349 10360 10372 10387 10401 10411 10423
10535 10524 10512 10489 10470 10451 10431 10408 10389 10373 10355 10346 10328 10316 10307 10288 10278 10280 10279 10280 10282 10285 10292 10295 10299 10306 10319 10334 10346 10357 10367 10384
10508 10496 10472 10454 10435 10415 10389 10364 10344 10324 10309 10300 10282 10277 10265 10250 10251 10246 10246 10245 10247 10249 10255 10259 10266 10274 10283 10296 10305 10315 10326 10341
10478 10460 10442 10419 10399 10373 10344 10322 10302 10286 10272 10264 10252 10240 10231 10219 10219 10217 10215 10217 10218 10221 10223 10229 10236 10243 10252 10261 10269 10282 10292 10307
10443 10428 10407 10384 10359 10337 10308 10287 10270 10254 10241 10232 10224 10215 10206 10199 10194 10190 10190 10192 10194 10195 10198 10201 10208 10215 10223 10230 10241 10250 10262 10273
10410 10394 10376 10352 10329 10300 10277 10257 10242 10229 10217 10207 10201 10190 10185 10178 10173 10170 10170 10171 10173 10174 10176 10178 10184 10191 10198 10206 10215 10225 10235 10248
10379 10359 10340 10314 10293 10270 10249 10234 10221 10206 10196 10187 10179 10171 10164 10159 10155 10153 10151 10152 10154 10155 10157 10161 10166 10170 10175 10182 10192 10203 10210 10220
10349 10325 10303 10283 10263 10246 10225 10211 10199 10184 10175 10169 10163 10155 10148 10143 10140 10137 10135 10136 10137 10139 10141 10143 10147 10152 10157 10162 10169 10176 10184 10194
10316 10294 10272 10252 10234 10222 10204 10192 10180 10167 10160 10153 10147 10141 10135 10131 10127 10124 10123 10123 10123 10124 10126 10127 10129 10133 10137 10142 10148 10155 10162 10169